Starlink 34449

operational
NORAD ID: 64465 Int'l Des: 2025-130 Owner: SPXS Country: US Constellation: starlink
LEOCIRCULAR

Über Starlink 34449

Beschreibung wird geladen...

Live-Position

3D-Globus wird geladen...

Nächste Überflüge

Höhenverlauf

Altitude vs Time

uPlot chart will show altitude changes over time

Zweizeiliger Elementsatz

1 64465U 25130AD 26062.17352343 .00029800 00000-0 10138-2 0 9994
2 64465 53.1579 118.9156 0001410 94.4702 265.6460 15.30214651 39706
Epoch: 3. März 2026 • Age: 31 hours

Aktueller Status

Höhe 479.3 km
Geschwindigkeit 7.63 km/s
Subsatellitenpunkt 46.90°N, 102.03°W
Startdatum 18. Juni 2025
Alter 0.7 years
Typ internet

Technische Details

Klassifizierung Payload
Masse 575.00 kg
Trockenmasse 530.00 kg
Gesamtmasse 575.00 kg
Länge 0.30 m
Durchmesser 4.10 m
Spannweite 29.00 m
Form Box + pan
Hersteller SPXS
Bus-Typ Starlink V2MO
Phasenstatus In Orbit
Besitzer/Staat SPXS/US

Große Konstellationen

Loading constellations...